Weather History for CWEU - November, 2012

Change the Weather History Date:

Monday, November 19, 2012

  Actual Average Record
Temperature  
Mean Temperature -32 °F -  
Max Temperature -29 °F -22 °F 24 °F (1996)
Min Temperature -36 °F -35 °F -41 °F (2010)
Degree Days  
Heating Degree Days 98    
Moisture  
Dew Point -41 °F    
Average Humidity 63    
Maximum Humidity 75    
Minimum Humidity 43    
Precipitation  
Precipitation 0.00 in 0.00 in - ()
Sea Level Pressure  
Sea Level Pressure 30.23 in    
Wind  
Wind Speed 0 mph ()    
Max Wind Speed 4 mph    
Max Gust Speed -    
Visibility 15.0 miles    
Events Snow    
Averages and records for this station are not official NWS values.
T = Trace of Precipitation, MM = Missing Value Source: Averaged Metar Reports

Daily Weather History Graph

Daily Weather History Graph

Search for Another Location

Airport or City:

Trip Planner

Search our weather history database for the weather conditions in past years. The results will help you decide how hot, cold, wet, or windy it might be!

Date:

Astronomy

Dec. 31, 1969 Rise Set
Actual Time Sun does not set Sun does not set
Civil Twilight Sun does not set Sun does not set
Nautical Twilight 8:44 AM CST 2:12 PM CST
Astronomical Twilight 5:59 AM CST 4:56 PM CST
Moon No Moon Rise No Moon Set
Length of Visible Light 0h 00m
Length of Day
0h 00m
Waxing Crescent, 41% of the Moon is Illuminated
Nov 19
Waxing Crescent
Nov 20
First Quarter
Nov 28
Full
Dec 6
Last Quarter
Dec 13
New

Hourly Weather History & Observations

Time (CST) Temp. Windchill Dew Point Humidity Pressure Visibility Wind Dir Wind Speed Gust Speed Precip Events Conditions
12:00 AM -34 °F - -41 °F 50% 30.18 in 15 mi Calm Calm - - Snow Snow
12:00 AM -32.8 °F - -41.8 °F 62% 30.18 in 15.0 mi Calm Calm - N/A   Clear
1:00 AM -34.6 °F - -41.8 °F 68% 30.19 in 15.0 mi Calm Calm - N/A   Clear
2:00 AM -34.6 °F - -41.8 °F 68% 30.20 in 15.0 mi Calm Calm - N/A   Clear
3:00 AM -32.8 °F - -41.8 °F 62% 30.20 in 15.0 mi Calm Calm - N/A   Clear
4:00 AM -36.4 °F - -43.6 °F 67% 30.22 in 15.0 mi Calm Calm - N/A   Clear
5:00 AM -36.4 °F - -43.6 °F 67% 30.22 in 15.0 mi Calm Calm - N/A   Clear
6:00 AM -35 °F - -43 °F 48% 30.22 in 15 mi Calm Calm - - Snow Snow
6:00 AM -34.6 °F - -41.8 °F 68% 30.22 in 15.0 mi Calm Calm - N/A   Clear
7:00 AM -34.6 °F - -41.8 °F 68% 30.23 in 15.0 mi Calm Calm - N/A   Clear
8:00 AM -34.6 °F - -41.8 °F 68% 30.23 in 15.0 mi Calm Calm - N/A   Clear
9:00 AM -32.8 °F - -40.0 °F 68% 30.23 in 15.0 mi Calm Calm - N/A   Clear
10:00 AM -32.8 °F - -41.8 °F 62% 30.24 in 15.0 mi Calm Calm - N/A   Clear
11:00 AM -34.6 °F - -40.0 °F 75% 30.24 in 15.0 mi Calm Calm - N/A   Clear
12:00 PM -35 °F - -43 °F 44% 30.25 in 15 mi Calm Calm - - Snow Snow
12:00 PM -34.6 °F - -43.6 °F 61% 30.25 in 15.0 mi Calm Calm - N/A   Partly Cloudy
1:00 PM -32.8 °F - -40.0 °F 68% 30.25 in 15.0 mi Calm Calm - N/A   Partly Cloudy
2:00 PM -32.8 °F - -40.0 °F 68% 30.25 in 15.0 mi SE 2.3 mph - N/A   Clear
3:00 PM -31.0 °F - -38.2 °F 68% 30.25 in 15.0 mi Calm Calm - N/A   Clear
4:00 PM -31.0 °F - -40.0 °F 62% 30.25 in 15.0 mi Calm Calm - N/A   Clear
5:00 PM -31.0 °F - -40.0 °F 62% 30.26 in 15.0 mi Calm Calm - N/A   Clear
6:00 PM -30 °F - -39 °F 43% 30.26 in 15 mi Calm Calm - - Snow Snow
6:00 PM -31.0 °F - -38.2 °F 68% 30.26 in 15.0 mi Calm Calm - N/A   Clear
7:00 PM -29.2 °F - -36.4 °F 68% 30.25 in 15.0 mi Calm Calm - N/A   Clear
8:00 PM -29.2 °F -41.2 °F -36.4 °F 68% 30.26 in 15.0 mi SE 3.5 mph - N/A   Clear
8:42 PM - - - N/A% - 15.0 mi Calm Calm - N/A   Unknown
9:00 PM -29.2 °F - -36.4 °F 68% 30.26 in 15.0 mi Calm Calm - N/A Snow Light Snow